GFSNW_sfc_thetae_336.txt.gz
Theta_e
312 312 312 312 311 309 311 315 304 317 314 303 301 299 305 310 316 317 317 315 314 310 310 308 307 307 311 318 317 311 309 301 297 301 307 310 304 298 296 291 289 290 290 291
312 312 312 312 311 310 306 309 310 318 312 298 297 302 308 310 313 315 314 314 315 314 310 305 311 312 316 317 315 309 308 300 293 294 298 305 304 302 298 296 293 290 288 290
312 312 312 312 311 310 306 311 307 310 306 303 300 299 302 310 316 316 317 314 315 310 308 311 309 311 317 320 317 318 314 302 297 291 295 300 299 302 300 295 289 290 293 297
313 312 312 312 311 310 307 314 307 317 305 303 301 303 307 309 310 316 315 311 312 309 305 308 308 314 313 316 317 314 309 298 303 304 306 306 302 301 300 295 294 291 295 299
312 312 312 312 311 310 313 312 318 321 314 313 308 307 307 310 313 313 312 311 313 311 306 306 307 311 308 309 312 310 307 298 303 300 306 307 302 303 304 299 299 301 301 298
312 312 312 312 312 311 315 322 328 322 312 310 308 310 312 314 315 317 317 316 313 311 310 310 311 312 312 312 308 307 306 302 300 296 304 305 298 302 302 301 304 303 298 300
312 312 312 313 313 312 309 315 323 319 311 310 310 314 315 314 314 313 316 316 313 315 319 312 311 313 312 312 310 310 306 305 300 297 300 289 303 310 308 305 306 306 302 301
311 312 312 313 313 313 307 316 322 318 312 315 312 312 312 315 313 314 315 316 322 321 316 306 303 304 304 309 313 310 310 304 298 295 293 300 306 309 306 302 300 305 300 300
311 312 312 313 313 313 308 313 325 321 313 308 315 314 312 311 311 312 316 321 320 317 313 308 298 297 301 303 307 312 310 307 301 297 292 291 304 313 314 309 293 302 300 298
312 312 313 313 313 314 309 313 323 318 309 313 316 312 310 317 316 311 314 314 316 315 305 302 298 298 305 297 300 300 302 301 297 293 294 300 309 312 314 292 292 300 299 298
311 312 313 313 314 314 310 315 326 323 315 317 319 323 315 317 316 310 313 313 313 309 305 303 300 296 298 298 301 301 300 297 294 296 293 292 311 309 300 302 299 299 300 298
310 311 312 313 314 314 314 316 332 336 324 321 324 324 328 322 321 317 317 314 312 310 307 304 302 301 300 299 296 308 300 301 298 298 298 306 307 305 305 301 299 300 299 300
310 311 312 313 314 314 313 311 318 327 321 320 319 319 324 327 324 327 316 318 319 317 320 310 305 300 303 298 298 304 306 310 301 303 303 304 303 303 301 302 301 301 302 302
310 311 312 313 313 313 314 312 322 323 323 312 315 326 318 323 325 325 321 320 321 318 313 308 306 302 307 300 304 302 305 306 302 302 304 304 304 303 302 302 303 302 301 301
310 311 312 312 313 312 312 312 316 323 318 312 310 316 319 319 317 321 321 317 315 311 309 306 307 311 305 304 306 302 306 302 299 296 303 301 301 303 305 303 303 302 301 300
310 312 312 312 312 312 321 321 324 318 324 315 307 317 316 316 316 314 313 311 311 310 306 306 310 311 306 301 299 305 305 304 304 301 303 302 303 304 305 302 302 303 301 300
310 310 310 310 311 312 319 315 320 312 324 316 308 307 315 317 314 314 313 313 311 308 308 308 308 309 306 301 298 306 310 307 305 304 304 302 303 301 303 303 304 305 303 302
309 309 310 311 311 312 315 323 314 314 321 318 307 310 311 314 309 308 313 310 310 311 307 311 312 312 306 298 304 307 313 311 306 305 305 303 304 303 303 304 303 301 300 300
309 309 310 313 314 314 320 322 316 319 317 310 308 304 302 312 309 310 308 310 304 310 306 308 309 304 299 302 306 309 311 306 305 307 306 304 303 303 303 302 302 299 298 299
311 314 315 310 318 320 321 318 311 316 317 315 306 310 306 310 308 305 307 307 307 305 306 309 305 305 308 311 313 315 313 312 307 302 301 302 302 303 303 304 302 300 300 299
316 313 314 318 319 316 314 310 307 307 306 309 309 307 303 310 304 302 306 303 304 302 303 303 299 299 306 311 311 314 316 309 308 309 306 306 305 303 303 303 304 304 303 302
308 306 310 316 315 305 305 302 305 306 303 307 305 306 308 308 309 305 307 305 306 300 308 304 296 303 307 311 313 313 309 310 310 312 311 308 308 306 305 305 306 303 304 304
310 318 314 304 304 295 302 300 302 302 307 307 305 303 307 310 309 305 304 303 300 308 304 299 300 305 309 310 313 309 310 310 310 310 311 313 312 312 310 307 307 306 305 305
317 306 292 301 301 303 302 301 303 306 305 304 303 302 303 305 305 306 303 304 306 299 296 297 302 306 308 312 310 309 308 309 308 309 309 312 311 310 310 311 308 309 307 308
309 305 296 302 304 304 304 306 305 306 305 304 301 301 302 302 305 305 302 301 298 298 298 301 308 312 311 308 310 309 309 308 308 310 312 312 309 308 308 310 310 310 309 309
309 307 303 303 304 303 304 305 304 307 307 308 303 300 301 301 304 302 300 298 296 298 303 307 309 309 308 309 309 309 311 309 308 308 308 308 308 307 307 309 308 308 308 308
308 302 305 304 304 303 304 304 304 307 307 304 305 303 301 304 301 300 302 298 302 304 307 308 309 308 308 309 310 312 309 307 309 306 308 308 309 309 308 305 305 306 308 309

GFSNW_sfc_thetae_339.txt.gz
Theta_e
313 312 312 312 311 309 309 310 302 313 309 301 297 297 303 307 313 316 317 314 313 308 308 307 306 307 309 316 315 308 306 300 297 300 303 307 301 298 296 291 289 289 288 289
312 312 311 312 311 309 307 307 307 316 309 297 296 300 305 307 312 313 314 314 313 313 307 302 307 311 315 315 313 305 305 297 292 295 295 302 302 301 297 294 292 289 288 290
312 312 311 311 311 310 306 308 308 315 304 301 298 297 299 302 314 314 315 314 314 310 307 309 306 309 316 318 314 318 312 301 296 293 294 297 298 300 298 294 288 289 291 293
312 312 312 312 311 310 308 311 307 314 307 307 303 299 305 306 308 314 314 310 311 308 304 307 307 312 313 315 316 312 304 296 300 302 304 304 303 301 298 294 292 290 292 297
312 312 312 312 311 309 315 315 316 319 312 310 309 306 306 309 310 311 310 308 312 313 307 308 304 309 307 307 309 307 305 297 301 300 304 305 300 304 299 300 301 300 301 299
312 312 312 312 312 310 311 316 322 317 308 307 306 308 311 312 313 314 316 314 312 309 311 312 309 311 310 309 307 305 304 300 298 295 302 302 295 302 302 301 303 301 295 299
312 312 312 312 312 311 308 313 319 313 306 308 309 313 314 312 312 309 314 315 310 315 319 314 309 309 309 310 308 308 303 301 299 296 298 289 301 309 308 303 303 302 300 299
311 312 312 313 313 313 306 310 320 316 309 311 311 311 310 312 312 312 313 314 318 318 314 305 302 303 303 307 311 309 307 304 297 293 291 298 304 309 306 300 299 302 298 297
312 312 312 313 313 313 309 309 317 319 309 308 314 311 310 306 306 309 314 317 318 314 310 305 298 297 299 299 304 310 306 306 301 295 290 290 301 311 312 304 292 300 298 296
312 312 313 313 313 313 309 309 317 313 307 311 315 309 311 314 310 307 312 312 311 311 304 301 297 297 303 296 297 298 300 300 297 292 293 297 307 310 311 291 293 299 298 296
311 312 313 313 313 314 310 310 319 320 314 314 316 320 315 316 314 308 312 308 309 306 303 302 299 296 298 296 300 299 300 297 295 295 291 291 309 307 299 300 298 298 297 297
310 311 312 313 313 313 313 313 324 328 321 318 321 322 325 321 321 317 315 312 312 310 305 302 300 300 299 297 294 305 301 300 297 297 297 305 306 304 305 301 298 298 297 298
310 311 312 313 313 313 312 307 311 325 318 317 317 315 322 325 323 324 314 318 320 316 316 307 304 300 301 296 296 301 305 306 301 301 302 302 302 301 300 300 298 300 300 300
310 310 311 312 313 313 313 309 316 321 320 310 313 322 318 325 324 322 321 317 318 315 310 308 305 301 305 299 301 301 304 303 301 299 300 302 302 301 300 300 300 300 299 299
310 311 312 312 312 312 311 309 311 318 316 311 309 314 317 316 321 322 321 315 312 310 308 305 305 304 301 306 304 299 303 299 296 294 300 300 300 300 302 300 299 300 299 298
310 312 312 311 311 311 313 317 320 316 319 312 305 313 314 315 313 313 311 310 310 308 305 306 306 306 303 298 297 303 305 303 302 299 300 300 301 302 303 301 301 301 300 299
310 310 310 310 310 309 317 316 318 312 321 313 307 306 313 315 312 312 311 312 308 308 304 305 305 306 303 299 296 304 309 308 303 303 302 299 301 300 302 302 303 303 301 300
309 309 310 310 310 310 312 320 311 312 317 314 305 307 309 312 308 307 310 311 310 311 309 310 309 308 301 298 302 306 309 310 304 304 303 301 301 301 301 302 301 300 299 300
309 310 310 312 312 311 316 317 314 319 311 307 306 303 303 310 307 308 306 307 307 310 308 306 304 302 301 303 305 307 310 306 304 304 303 302 302 302 302 301 301 299 298 298
310 314 312 308 315 318 318 315 309 313 313 310 304 306 307 309 304 302 305 306 307 301 303 306 301 300 306 308 310 309 310 312 311 301 300 301 301 302 304 302 302 301 299 298
310 309 311 314 315 314 312 308 305 305 304 306 306 304 302 307 303 300 303 300 302 300 302 301 298 296 303 308 310 310 308 308 308 306 305 306 304 304 303 302 303 302 300 301
306 305 307 312 309 303 303 300 304 304 301 305 303 304 306 307 306 303 305 303 304 301 308 301 295 299 304 308 310 311 307 307 307 307 307 307 307 307 303 303 303 303 304 304
309 312 307 303 302 295 301 298 300 300 304 303 302 301 304 306 306 302 303 301 300 307 302 297 298 302 306 307 310 308 307 307 307 307 308 311 311 311 309 306 305 304 303 305
313 302 292 299 299 300 300 302 302 304 303 301 300 299 300 302 303 303 302 302 304 298 294 295 300 303 305 308 311 307 306 307 306 307 309 311 309 307 308 308 307 306 306 306
305 303 294 300 301 301 302 303 302 304 303 302 301 298 300 300 302 302 302 301 297 296 296 299 304 307 308 309 307 307 307 307 306 307 309 308 308 306 305 306 307 307 307 306
306 303 300 301 302 301 302 302 301 304 304 304 301 299 299 299 301 300 298 296 294 297 300 304 305 307 309 307 307 308 308 308 306 306 306 306 306 305 304 306 306 305 306 307
305 300 302 301 301 301 301 302 301 303 305 302 303 300 298 301 299 298 300 297 299 302 304 306 306 308 308 307 308 309 310 307 304 304 306 305 306 306 306 305 305 306 307 308

GFSNW_sfc_thetae_342.txt.gz
Theta_e
313 312 312 312 311 309 308 306 300 309 306 299 296 296 301 304 310 314 314 312 312 307 307 305 303 306 308 314 314 307 307 300 297 301 303 303 301 299 296 290 289 289 287 288
312 312 311 311 311 309 304 305 305 314 306 295 295 299 303 305 308 309 313 313 313 313 306 301 306 308 314 315 311 304 304 296 292 295 296 300 300 302 296 293 292 289 287 290
312 312 311 311 311 310 305 305 309 312 303 299 297 295 298 301 312 312 313 311 311 309 306 306 304 307 314 317 312 317 310 299 296 291 293 296 299 302 298 294 288 289 291 293
312 312 312 311 311 310 306 312 309 313 305 305 303 299 301 303 305 311 312 308 309 308 303 305 305 310 311 314 315 310 303 296 297 299 301 302 300 300 297 295 293 290 294 296
312 312 312 312 311 309 313 315 313 315 309 309 307 303 305 307 307 309 307 306 310 309 306 307 306 308 306 307 309 306 304 296 299 298 302 303 300 302 298 299 301 300 300 298
312 312 312 312 312 309 310 313 320 314 305 306 304 305 309 311 311 311 314 311 310 307 309 312 312 309 309 308 305 303 301 299 296 294 300 300 294 299 300 300 302 300 294 296
312 312 312 312 312 310 306 311 318 310 304 306 307 311 313 310 310 307 311 312 307 311 316 313 311 309 309 309 306 306 302 299 297 294 296 287 299 307 307 303 302 299 299 296
311 312 312 312 313 312 306 308 319 314 306 309 309 309 308 309 308 309 311 313 315 315 311 305 302 301 302 306 308 307 305 301 294 291 289 295 302 306 304 300 298 299 296 298
311 312 312 313 313 312 310 307 313 317 308 305 312 310 308 304 304 307 310 314 315 315 308 305 297 295 298 297 303 307 305 304 298 293 289 287 298 309 311 304 292 300 297 297
312 312 313 313 313 313 309 307 314 311 306 309 312 308 307 312 308 307 308 311 310 309 303 300 298 296 301 295 297 297 298 298 295 292 292 296 306 310 310 292 293 299 298 297
311 312 312 313 313 313 309 310 315 318 312 312 315 318 312 313 311 304 309 306 307 305 302 302 298 295 296 296 299 298 298 295 294 293 290 290 307 306 298 300 298 298 298 298
310 311 312 313 313 313 312 312 319 323 319 317 319 318 323 319 318 314 313 310 311 309 304 301 298 299 298 296 294 304 297 299 296 296 295 304 306 302 303 300 298 298 298 299
310 311 312 312 313 313 312 307 308 323 316 314 315 312 318 323 322 321 311 314 318 317 315 307 305 299 300 295 296 300 304 304 300 300 301 302 302 300 300 301 299 300 300 300
310 310 311 312 313 312 313 308 312 319 317 310 312 319 314 322 322 322 320 317 317 313 310 307 303 301 302 298 300 299 302 301 300 298 299 301 302 300 301 301 301 301 302 301
310 311 312 312 312 311 310 308 309 314 315 309 309 313 315 314 320 320 319 315 311 309 306 304 303 302 302 302 300 296 300 298 294 293 300 300 300 301 302 300 300 300 300 299
310 311 312 311 311 311 312 313 315 311 316 310 304 311 313 312 312 314 308 308 308 305 306 304 304 305 301 297 295 302 304 302 301 299 301 301 301 302 303 301 301 301 300 300
310 310 310 310 310 308 317 314 316 313 318 310 305 306 311 313 310 310 310 309 307 306 304 303 303 304 301 297 296 303 306 308 306 303 301 299 302 300 303 302 303 304 302 301
309 309 309 310 309 309 311 316 310 312 315 311 304 305 308 311 306 306 308 307 308 308 306 307 305 303 300 297 301 305 308 309 308 303 303 302 302 302 302 302 301 301 300 300
309 309 310 310 309 309 313 316 314 317 309 305 304 302 300 309 306 306 306 306 305 309 305 306 303 300 297 302 304 306 308 308 306 304 303 303 302 303 302 301 301 299 299 300
309 310 309 306 313 317 317 313 307 311 311 307 302 304 306 307 304 301 304 306 306 300 303 304 299 298 304 306 308 309 309 309 310 302 302 302 302 303 302 303 304 302 302 303
309 310 310 312 313 313 310 306 304 304 304 304 304 302 301 305 302 299 301 299 304 299 300 300 295 295 302 307 308 307 306 306 306 307 306 305 305 305 303 305 305 303 304 302
305 306 307 310 307 302 302 299 303 302 301 303 302 303 304 305 304 302 303 300 302 299 305 299 294 299 303 306 308 309 307 306 306 307 307 308 308 307 306 304 304 303 304 303
309 307 304 302 301 294 298 297 299 299 302 301 301 300 302 304 304 301 301 299 300 306 300 296 296 301 305 306 308 308 307 306 307 307 308 309 310 310 307 306 306 305 304 305
309 300 292 297 297 299 299 301 301 303 301 300 299 298 299 300 302 301 301 301 303 298 293 295 300 303 304 306 309 308 306 306 307 307 307 310 309 308 308 308 307 307 307 308
303 302 293 298 299 300 301 301 301 302 301 301 300 297 298 299 301 303 301 299 297 295 295 299 303 304 305 307 308 308 306 306 306 306 306 307 307 306 305 306 306 307 306 307
304 301 299 299 300 299 300 300 299 301 302 302 300 297 298 299 300 299 298 296 295 296 299 303 303 305 306 308 309 308 308 307 307 307 306 306 305 305 305 305 306 305 306 307
302 299 300 299 300 300 300 300 299 301 303 300 301 298 297 300 298 297 298 298 300 300 302 303 305 306 307 308 308 308 308 308 306 304 303 304 305 304 305 305 306 306 307 307

GFSNW_sfc_thetae_345.txt.gz
Theta_e
312 312 312 312 311 309 310 313 308 318 313 309 305 306 306 304 311 318 316 314 312 309 310 308 307 307 311 316 316 310 311 309 304 305 309 308 308 305 303 299 296 298 297 298
312 312 311 311 311 309 310 313 315 320 315 304 306 307 306 308 308 312 314 314 314 316 311 306 309 311 316 317 314 311 312 306 302 303 304 307 306 307 304 302 301 299 295 298
312 312 311 311 311 310 312 314 312 316 313 309 307 305 305 305 314 314 316 315 316 312 310 312 309 310 315 317 314 316 316 307 305 300 301 304 304 306 305 303 299 297 298 300
312 312 312 312 311 310 313 322 319 319 310 313 312 309 306 307 310 315 317 313 314 313 309 310 309 311 313 315 315 314 314 307 306 306 305 306 303 302 302 300 300 298 301 301
312 312 312 312 311 309 319 322 322 320 316 315 314 308 311 310 310 314 312 312 314 314 312 313 310 312 313 311 313 313 313 306 308 304 306 306 303 303 302 303 304 303 303 302
312 312 312 312 312 311 316 322 327 321 309 313 313 313 314 314 315 316 316 315 315 312 313 317 318 317 317 316 313 312 311 310 307 302 306 304 300 303 304 304 305 303 299 302
312 312 312 312 312 311 313 318 325 322 313 314 313 314 315 314 315 313 316 317 314 316 322 318 317 317 316 317 315 315 312 310 308 303 304 293 306 311 309 306 304 304 302 302
312 312 312 312 313 312 313 315 325 323 317 315 313 313 313 313 314 315 315 317 320 323 318 314 310 310 310 312 313 314 315 312 304 301 300 301 306 309 307 305 302 302 302 303
311 312 312 313 313 312 313 314 320 327 318 313 316 314 314 312 312 314 314 319 323 321 317 313 304 302 305 304 309 313 313 314 310 303 297 292 304 310 314 309 299 304 303 304
312 312 313 313 313 313 314 315 320 320 315 317 319 317 315 317 316 313 315 317 317 319 315 310 307 305 307 303 304 305 308 308 303 300 301 302 309 311 314 298 300 305 305 304
311 311 312 313 313 313 314 317 320 325 323 322 321 322 319 320 319 313 316 314 318 314 311 310 307 304 305 304 307 307 306 304 304 303 299 295 311 309 303 309 310 307 307 307
310 311 312 312 313 313 314 316 326 326 325 327 326 325 327 325 325 322 321 317 318 317 313 311 308 307 307 306 304 312 305 308 306 304 305 311 313 311 314 312 308 308 307 307
310 311 311 312 313 313 313 314 317 330 327 324 323 321 326 329 328 329 318 322 325 323 322 314 312 309 310 305 307 309 310 310 309 308 309 310 310 308 308 309 308 308 309 309
310 310 311 312 312 312 313 314 320 326 325 321 322 324 323 328 330 328 327 325 323 323 320 317 313 311 311 307 308 308 309 310 308 305 307 308 309 310 308 308 308 309 309 309
310 311 312 312 312 311 314 315 316 320 323 318 320 322 322 323 328 327 327 325 322 321 315 314 310 310 311 310 307 304 310 308 303 301 308 308 307 311 308 308 309 310 309 308
310 311 312 311 311 311 315 323 321 318 325 320 314 321 321 320 326 323 319 320 318 316 315 313 313 313 312 308 304 309 310 310 311 309 311 312 311 310 311 309 310 311 310 310
310 310 310 310 310 314 324 322 322 315 326 319 314 317 320 319 319 319 320 319 317 318 315 314 314 313 312 309 305 311 312 314 315 312 310 308 309 309 311 311 311 309 310 310
309 309 309 309 309 310 318 323 311 320 324 321 314 315 317 319 317 317 318 318 319 317 316 317 314 312 312 307 309 312 314 316 316 313 311 312 311 311 311 312 311 309 309 310
309 309 310 313 315 316 322 314 314 322 319 315 315 311 308 318 316 316 316 318 314 319 315 313 313 311 307 310 311 313 314 314 313 314 311 311 310 311 310 309 307 308 310 311
309 312 315 313 319 316 318 321 318 320 320 317 313 314 313 315 313 312 314 316 313 307 310 313 310 308 312 314 314 315 315 316 317 313 311 311 311 312 312 310 308 311 310 311
317 319 317 319 314 321 318 314 312 313 313 314 314 312 312 314 312 311 312 311 313 303 307 309 306 307 311 313 312 315 313 313 313 314 314 314 313 311 311 311 312 311 312 311
311 314 313 317 315 311 311 308 310 309 309 312 311 312 314 315 315 313 312 308 309 303 314 307 303 309 313 313 314 314 314 314 313 314 313 314 314 315 313 313 313 314 313 312
317 314 311 311 309 301 302 301 307 307 310 310 310 310 311 314 315 311 311 305 303 313 307 304 306 311 312 314 315 314 315 314 314 314 315 314 316 317 315 314 315 315 314 315
315 307 297 304 304 306 308 310 310 312 311 309 309 308 310 311 311 310 305 308 310 303 300 301 311 313 314 315 315 315 313 314 314 314 315 314 314 315 316 315 315 314 314 315
310 309 301 304 307 308 309 310 310 310 310 311 311 307 309 310 308 309 306 303 300 302 302 309 314 314 315 314 315 315 314 315 315 316 315 315 316 314 314 315 315 314 314 313
310 309 306 307 308 308 309 309 308 311 312 311 310 306 306 306 307 304 302 300 299 303 310 313 315 316 316 317 318 318 317 316 316 317 316 314 312 312 313 313 314 313 312 312
308 307 309 309 309 309 310 310 309 311 313 310 310 304 303 308 304 302 306 303 308 311 313 314 316 316 318 318 318 318 318 317 317 314 311 311 313 313 313 312 312 312 311 310